User: anonymous   Login
Location: Poughquag
(41.6090°N, 73.6820°W)
Time: 11:43:13
(UTC-04:00)
Language:

STARLINK-1348 - Orbit

View from above orbital plane
View from above orbital plane
View from above satellite
View from above satellite

Ground track
Ground track

The orbit data is extracted from the following two-line orbital elements,

1 45561C 20025AG  20221.46090014  .00011224  00000-0  14141-3 0  2213
2 45561  52.9973 231.3692 0008295 318.1991 187.7586 15.58930950    18
Epoch (UTC): 08 August 2020 11:03:41
Eccentricity: 0.0008295
inclination: 52.9973°
perigee height: 385 km
apogee height: 396 km
right ascension of ascending node: 231.3692°
argument of perigee: 318.1991°
revolutions per day: 15.58930950
mean anomaly at epoch: 187.7586°
orbit number at epoch: 1

The dashed part of the orbit path shows where the satellite is in the earth's shadow,  

DLR